FW6365 Weather Reports


Display with metric or nautical units.
time (UTC)temp
F
wind
direction
speed
MPH
gust
MPH
rain 1hr
in
rain 24hr
in
rain mn
in
humidity
%
barometer
mb
20260505111541 55 231 2.0 6.0 0.00 0.00 0.00 89 1014.5
20260505111026 55 231 3.0 7.0 0.00 0.00 0.00 89 1014.6
20260505110528 55 189 2.0 7.0 0.00 0.00 0.00 88 1014.5
20260505102026 55 169 2.0 9.0 0.00 0.00 0.00 88 1014.3
20260505101559 55 224 5.0 9.0 0.00 0.00 0.00 88 1014.2
20260505101026 55 182 3.0 6.0 0.00 0.00 0.00 88 1014.3
20260505100526 55 202 3.0 9.0 0.00 0.00 0.00 88 1014.2
20260505100059 55 184 5.0 9.0 0.00 0.00 0.00 87 1014.1
20260505095529 55 216 4.0 9.0 0.00 0.00 0.00 87 1014.2
20260505095025 55 213 1.0 7.0 0.00 0.00 0.00 87 1014.1
20260505094540 55 269 4.0 7.0 0.00 0.00 0.00 87 1014.2
20260505094025 55 256 2.0 8.0 0.00 0.00 0.00 87 1014.1
20260505093525 55 226 4.0 8.0 0.00 0.00 0.00 87 1014.1
20260505093040 55 237 3.0 8.0 0.00 0.00 0.00 87 1014.0
20260505092525 55 205 4.0 8.0 0.00 0.00 0.00 88 1014.0
20260505092026 55 278 1.0 9.0 0.00 0.00 0.00 88 1014.0
20260505091543 55 238 2.0 9.0 0.00 0.00 0.00 88 1014.0
20260505091025 55 208 3.0 5.0 0.00 0.00 0.00 88 1014.0
20260505090525 55 237 1.0 4.0 0.00 0.00 0.00 88 1013.9
20260505090042 55 240 2.0 4.0 0.00 0.00 0.00 88 1013.8
20260505085526 55 243 1.0 3.0 0.00 0.00 0.00 89 1013.9
20260505085026 55 232 2.0 7.0 0.00 0.00 0.00 89 1013.9
20260505084543 55 279 2.0 7.0 0.00 0.00 0.00 89 1013.9
20260505084026 55 231 3.0 7.0 0.00 0.00 0.00 89 1013.9
20260505083526 54 249 4.0 7.0 0.00 0.00 0.00 89 1013.9
20260505083041 54 238 3.0 6.0 0.00 0.00 0.00 90 1013.8
20260505082525 54 234 3.0 6.0 0.00 0.00 0.00 91 1013.8
20260505082025 54 205 2.0 4.0 0.00 0.00 0.00 91 1013.8
20260505081548 54 0 2.0 7.0 0.00 0.00 0.00 91 1013.9
20260505081025 53 236 1.0 7.0 0.00 0.00 0.00 92 1013.8
20260505080525 53 216 3.0 7.0 0.00 0.00 0.00 92 1013.8
20260505080049 53 208 2.0 5.0 0.00 0.00 0.00 92 1013.9
20260505075525 53 184 2.0 5.0 0.00 0.00 0.00 92 1013.8
20260505075023 52 224 2.0 5.0 0.00 0.00 0.00 92 1013.8
20260505074543 52 190 2.0 5.0 0.00 0.00 0.00 92 1013.8
20260505074023 52 179 3.0 5.0 0.00 0.00 0.00 92 1013.7
20260505073526 52 176 3.0 5.0 0.00 0.00 0.00 92 1013.7
20260505073043 52 151 3.0 5.0 0.00 0.00 0.00 92 1013.7
20260505072522 52 198 4.0 6.0 0.00 0.00 0.00 92 1013.6
20260505072025 52 171 3.0 6.0 0.00 0.00 0.00 92 1013.4
20260505071549 52 200 3.0 5.0 0.00 0.00 0.00 92 1013.4
20260505071025 52 142 2.0 5.0 0.00 0.00 0.00 92 1013.3
20260505070526 52 167 3.0 6.0 0.00 0.00 0.00 92 1013.2
20260505070040 52 151 2.0 6.0 0.00 0.00 0.00 92 1013.2
20260505065526 52 173 2.0 4.0 0.00 0.00 0.00 92 1013.2
20260505065025 52 185 2.0 5.0 0.00 0.00 0.00 91 1013.1
20260505064544 52 198 2.0 5.0 0.00 0.00 0.00 91 1013.1
20260505064025 52 151 2.0 5.0 0.00 0.00 0.00 91 1013.0
20260505063525 52 158 3.0 5.0 0.00 0.00 0.00 91 1012.9
20260505063047 52 152 3.0 5.0 0.00 0.00 0.00 90 1012.9
20260505062525 53 151 1.0 6.0 0.00 0.00 0.00 90 1012.8
20260505062025 53 142 3.0 6.0 0.00 0.00 0.00 90 1012.7
20260505061545 53 150 2.0 5.0 0.00 0.00 0.00 90 1012.6
20260505061026 53 171 2.0 4.0 0.00 0.00 0.00 89 1012.6
20260505060525 53 149 2.0 5.0 0.00 0.00 0.00 89 1012.7
20260505060043 53 132 2.0 6.0 0.00 0.00 0.00 90 1012.6
20260505055526 53 182 2.0 6.0 0.00 0.00 0.00 89 1012.7
20260505055026 54 205 2.0 5.0 0.00 0.00 0.00 89 1012.6
20260505054547 54 175 1.0 5.0 0.00 0.00 0.00 89 1012.7
20260505054026 54 225 2.0 4.0 0.00 0.00 0.00 89 1012.7
20260505053525 54 180 2.0 4.0 0.00 0.00 0.00 89 1012.6
20260505053047 54 183 2.0 5.0 0.00 0.00 0.00 89 1012.6
20260505052528 54 215 2.0 5.0 0.00 0.00 0.00 89 1012.6
20260505052028 54 173 1.0 5.0 0.00 0.00 0.00 89 1012.5
20260505051543 54 201 2.0 6.0 0.00 0.00 0.00 88 1012.7
20260505051024 54 165 3.0 6.0 0.00 0.00 0.00 88 1012.7
20260505050525 54 258 2.0 6.0 0.00 0.00 0.00 88 1012.5
20260505041540 55 192 3.0 6.0 0.00 0.00 0.00 86 1012.1
20260505041025 55 182 2.0 5.0 0.00 0.00 0.00 85 1012.0
20260505040525 56 170 3.0 8.0 0.00 0.00 0.00 85 1012.1
20260505040045 56 214 3.0 8.0 0.00 0.00 0.00 85 1011.9
20260505035524 56 219 2.0 9.0 0.00 0.00 0.00 84 1011.9
20260505035024 56 184 4.0 9.0 0.00 0.00 0.00 84 1011.8
20260505034546 57 202 4.0 9.0 0.00 0.00 0.00 83 1011.8
20260505034025 57 246 4.0 9.0 0.00 0.00 0.00 83 1011.6
20260505033525 57 255 3.0 8.0 0.00 0.00 0.00 82 1011.6
20260505033041 57 210 4.0 9.0 0.00 0.00 0.00 81 1011.5
20260505032525 58 243 5.0 12.0 0.00 0.00 0.00 81 1011.5
20260505032023 58 180 4.0 12.0 0.00 0.00 0.00 80 1011.5
20260505031547 58 226 5.0 15.0 0.00 0.00 0.00 79 1011.5
20260505031027 59 214 8.0 15.0 0.00 0.00 0.00 78 1011.4
20260505030525 60 217 8.0 13.0 0.00 0.00 0.00 76 1011.3
20260505030042 61 240 8.0 13.0 0.00 0.00 0.00 75 1011.3
20260505025526 62 210 4.0 9.0 0.00 0.00 0.00 74 1011.3
20260505025025 62 244 3.0 9.0 0.00 0.00 0.00 73 1011.1
20260505024544 63 248 5.0 9.0 0.00 0.00 0.00 72 1011.1
20260505024026 63 241 4.0 9.0 0.00 0.00 0.00 71 1011.0
20260505023523 64 231 5.0 10.0 0.00 0.00 0.00 70 1011.0
20260505023050 64 218 5.0 11.0 0.00 0.00 0.00 70 1010.9
20260505022523 64 221 5.0 11.0 0.00 0.00 0.00 69 1010.9
20260505022023 65 186 5.0 11.0 0.00 0.00 0.00 68 1010.8
20260505021544 65 219 5.0 11.0 0.00 0.00 0.00 67 1010.9
20260505021022 66 180 5.0 11.0 0.00 0.00 0.00 67 1010.9
20260505020522 66 260 5.0 10.0 0.00 0.00 0.00 66 1010.8
20260505020040 66 243 4.0 15.0 0.00 0.00 0.00 67 1010.8
20260505015523 66 233 6.0 15.0 0.00 0.00 0.00 66 1010.8
20260505015026 67 213 7.0 15.0 0.00 0.00 0.00 66 1010.8
20260505014542 67 220 8.0 12.0 0.00 0.00 0.00 65 1010.8
20260505014022 68 221 6.0 11.0 0.00 0.00 0.00 65 1010.8
20260505013525 68 180 6.0 10.0 0.00 0.00 0.00 64 1010.8
20260505013039 68 225 4.0 11.0 0.00 0.00 0.00 65 1010.9
20260505012525 68 220 6.0 11.0 0.00 0.00 0.00 65 1010.8
20260505012025 69 221 5.0 10.0 0.00 0.00 0.00 63 1010.8
20260505011544 69 222 5.0 9.0 0.00 0.00 0.00 63 1010.7
20260505011027 70 242 4.0 11.0 0.00 0.00 0.00 63 1010.7
20260505010525 70 239 6.0 11.0 0.00 0.00 0.00 63 1010.7
20260505010103 70 173 6.0 13.0 0.00 0.00 0.00 62 1010.7
20260505005525 70 220 5.0 16.0 0.00 0.00 0.00 63 1010.8
20260505005023 71 240 8.0 16.0 0.00 0.00 0.00 62 1010.8
20260505004541 71 235 8.0 18.0 0.00 0.00 0.00 62 1010.7
20260505004026 71 257 7.0 18.0 0.00 0.00 0.00 62 1010.8
20260505003524 71 198 8.0 16.0 0.00 0.00 0.00 61 1010.7
20260505003045 71 243 8.0 15.0 0.00 0.00 0.00 60 1010.8
20260505002522 71 229 9.0 15.0 0.00 0.00 0.00 59 1010.6
20260505002022 72 240 8.0 17.0 0.00 0.00 0.00 59 1010.6
20260505001541 72 188 8.0 17.0 0.00 0.00 0.00 59 1010.5
20260505001025 72 240 9.0 16.0 0.00 0.00 0.00 59 1010.4
20260505000522 73 248 7.0 13.0 0.00 0.00 0.00 60 1010.6
20260505000045 73 250 8.0 14.0 0.00 0.00 0.00 58 1010.5
20260504235526 74 189 8.0 14.0 0.00 0.00 0.00 56 1010.6
20260504235025 74 250 8.0 13.0 0.00 0.00 0.00 57 1010.7
20260504234544 74 207 7.0 13.0 0.00 0.00 0.00 60 1010.6
20260504234026 74 206 6.0 12.0 0.00 0.00 0.00 58 1010.6
20260504233525 74 213 5.0 11.0 0.00 0.00 0.00 59 1010.5
20260504233042 74 204 5.0 12.0 0.00 0.00 0.00 57 1010.7
20260504232525 75 275 6.0 12.0 0.00 0.00 0.00 58 1010.6
20260504232024 74 223 5.0 12.0 0.00 0.00 0.00 58 1010.6
20260504231545 74 246 8.0 14.0 0.00 0.00 0.00 57 1010.6
20260504231022 74 234 8.0 15.0 0.00 0.00 0.00 56 1010.6
20260504230525 74 280 9.0 16.0 0.00 0.00 0.00 57 1010.7
20260504230045 74 196 8.0 16.0 0.00 0.00 0.00 56 1010.7
20260504225522 75 215 6.0 13.0 0.00 0.00 0.00 57 1010.7
20260504225022 75 224 7.0 13.0 0.00 0.00 0.00 55 1010.8
20260504224540 75 248 6.0 13.0 0.00 0.00 0.00 56 1010.8
20260504224023 75 282 5.0 12.0 0.00 0.00 0.00 58 1010.7
20260504223525 75 205 6.0 12.0 0.00 0.00 0.00 55 1010.8
20260504223058 75 247 5.0 11.0 0.00 0.00 0.00 59 1010.8
20260504222526 75 183 7.0 14.0 0.00 0.00 0.00 56 1011.0
20260504222025 74 231 8.0 16.0 0.00 0.00 0.00 57 1010.8
20260504221556 75 217 8.0 16.0 0.00 0.00 0.00 57 1010.9
20260504221025 75 238 6.0 13.0 0.00 0.00 0.00 57 1011.0
20260504220528 75 193 4.0 13.0 0.00 0.00 0.00 59 1011.1
20260504220044 75 227 7.0 14.0 0.00 0.00 0.00 56 1011.0
20260504215522 74 200 7.0 14.0 0.00 0.00 0.00 57 1011.1
20260504215025 74 163 7.0 13.0 0.00 0.00 0.00 56 1011.1
20260504214538 74 222 7.0 13.0 0.00 0.00 0.00 59 1011.2
20260504214022 75 247 6.0 13.0 0.00 0.00 0.00 56 1011.2
20260504213522 75 251 5.0 12.0 0.00 0.00 0.00 59 1011.3
20260504213057 74 233 6.0 12.0 0.00 0.00 0.00 57 1011.1
20260504212523 74 205 4.0 12.0 0.00 0.00 0.00 60 1011.2
20260504212022 74 211 4.0 12.0 0.00 0.00 0.00 56 1011.4
20260504211546 74 252 6.0 12.0 0.00 0.00 0.00 58 1011.3
20260504211022 74 258 7.0 11.0 0.00 0.00 0.00 56 1011.3
20260504210525 74 222 6.0 10.0 0.00 0.00 0.00 59 1011.3
20260504210038 74 244 6.0 10.0 0.00 0.00 0.00 59 1011.5
20260504205522 74 275 6.0 12.0 0.00 0.00 0.00 59 1011.4
20260504205025 74 198 6.0 12.0 0.00 0.00 0.00 58 1011.6
20260504204542 74 252 7.0 12.0 0.00 0.00 0.00 59 1011.6
20260504204025 74 250 4.0 12.0 0.00 0.00 0.00 60 1011.6
20260504203528 73 255 6.0 14.0 0.00 0.00 0.00 64 1011.5
20260504203049 73 203 7.0 15.0 0.00 0.00 0.00 62 1011.6
20260504202525 73 210 7.0 15.0 0.00 0.00 0.00 63 1011.6
20260504202024 72 172 8.0 19.0 0.00 0.00 0.00 66 1011.7
20260504201541 72 244 8.0 19.0 0.00 0.00 0.00 65 1011.8
20260504201025 72 190 10.0 15.0 0.00 0.00 0.00 66 1011.8
20260504200525 72 205 9.0 13.0 0.00 0.00 0.00 68 1011.7
20260504200042 71 192 9.0 13.0 0.00 0.00 0.00 66 1011.7
20260504195522 71 219 6.0 14.0 0.00 0.00 0.00 69 1011.8
20260504195022 71 169 8.0 14.0 0.00 0.00 0.00 68 1011.8
20260504194544 71 199 8.0 14.0 0.00 0.00 0.00 66 1011.8
20260504194023 71 183 8.0 13.0 0.00 0.00 0.00 67 1011.8
20260504193524 71 217 6.0 13.0 0.00 0.00 0.00 70 1011.7
20260504193039 70 173 6.0 13.0 0.00 0.00 0.00 69 1011.8
20260504192522 70 211 8.0 13.0 0.00 0.00 0.00 68 1011.9
20260504192026 70 217 6.0 12.0 0.00 0.00 0.00 69 1012.0
20260504191543 69 179 7.0 14.0 0.00 0.00 0.00 69 1012.1
20260504191025 69 162 9.0 14.0 0.00 0.00 0.00 70 1012.2
20260504190523 69 178 7.0 15.0 0.00 0.00 0.00 71 1012.2
20260504190043 68 134 9.0 15.0 0.00 0.00 0.00 69 1012.2
20260504185522 68 134 10.0 15.0 0.00 0.00 0.00 71 1012.3
20260504185025 68 156 10.0 14.0 0.00 0.00 0.00 71 1012.3
20260504184542 68 155 6.0 16.0 0.00 0.00 0.00 73 1012.2
20260504184025 68 198 7.0 16.0 0.00 0.00 0.00 72 1012.3
20260504183523 67 150 8.0 15.0 0.00 0.00 0.00 73 1012.4
20260504183042 67 146 9.0 15.0 0.00 0.00 0.00 75 1012.3
20260504182523 67 196 6.0 15.0 0.00 0.00 0.00 73 1012.3
20260504182022 66 145 8.0 13.0 0.00 0.00 0.00 74 1012.4
20260504181543 66 148 8.0 14.0 0.00 0.00 0.00 74 1012.3
20260504181024 66 216 8.0 14.0 0.00 0.00 0.00 74 1012.4
20260504180522 65 164 9.0 15.0 0.00 0.00 0.00 75 1012.4
20260504180047 65 187 6.0 15.0 0.00 0.00 0.00 77 1012.4
20260504175523 65 159 9.0 14.0 0.00 0.00 0.00 76 1012.3
20260504175024 64 135 8.0 12.0 0.00 0.00 0.00 77 1012.4
20260504174536 64 215 9.0 12.0 0.00 0.00 0.00 78 1012.3
20260504174025 64 145 8.0 12.0 0.00 0.00 0.00 77 1012.3
20260504173522 64 151 7.0 14.0 0.00 0.00 0.00 78 1012.3
20260504173042 63 211 7.0 14.0 0.00 0.00 0.00 78 1012.3
20260504172522 63 147 8.0 14.0 0.00 0.00 0.00 78 1012.4
20260504172022 63 122 10.0 14.0 0.00 0.00 0.00 78 1012.3
20260504171544 63 158 9.0 13.0 0.00 0.00 0.00 78 1012.3
20260504171025 63 151 7.0 11.0 0.00 0.00 0.00 79 1012.3
20260504170522 63 137 8.0 11.0 0.00 0.00 0.00 79 1012.3
20260504151022 56 174 2.0 4.0 0.00 0.00 0.00 96 1011.6
20260504150522 55 192 2.0 4.0 0.00 0.00 0.00 96 1011.5
20260504141024 47 0 0.0 0.0 0.00 0.00 0.00 98 1011.2
20260504140521 45 0 0.0 0.0 0.00 0.00 0.00 98 1011.1
20260504130522 43 0 0.0 0.0 0.00 0.00 0.00 97 1010.6